Time,TemperatureF,DewpointF,PressureIn,WindDirection,WindDirectionDegrees,WindSpeedMPH,WindSpeedGustMPH,Humidity,HourlyPrecipIn,Conditions,Clouds,dailyrainin,SoftwareType,DateUTC
2013-02-01 00:00:00,21.9,19.9,29.78,WNW,290,31.0,37.0,92,0.00,,,0.01,meteohub,2013-02-01 05:00:00,
2013-02-01 00:02:00,22.5,20.3,29.78,WNW,296,28.0,38.0,91,0.00,,,0.01,meteohub,2013-02-01 05:02:00,
2013-02-01 00:03:00,22.6,20.1,29.78,WNW,298,24.0,38.0,90,0.00,,,0.01,meteohub,2013-02-01 05:03:00,
2013-02-01 00:08:00,22.6,18.5,29.78,WNW,296,26.0,38.0,84,0.00,,,0.00,meteohub,2013-02-01 05:08:00,
2013-02-01 00:13:00,22.8,18.0,29.78,WNW,290,29.0,38.0,81,0.00,,,0.00,meteohub,2013-02-01 05:13:00,
2013-02-01 00:18:00,22.6,17.1,29.78,WNW,288,29.0,37.0,79,0.00,,,0.00,meteohub,2013-02-01 05:18:00,
2013-02-01 00:23:00,22.8,16.7,29.78,West,280,30.0,35.0,77,0.00,,,0.00,meteohub,2013-02-01 05:23:00,
2013-02-01 00:28:00,23.0,16.5,29.78,WNW,292,26.0,34.0,76,0.00,,,0.00,meteohub,2013-02-01 05:28:00,
2013-02-01 00:33:00,22.8,17.1,29.78,NW,304,27.0,34.0,78,0.00,,,0.00,meteohub,2013-02-01 05:33:00,
2013-02-01 00:38:00,22.6,17.8,29.78,WNW,298,29.0,37.0,81,0.00,,,0.00,meteohub,2013-02-01 05:38:00,
2013-02-01 00:43:00,22.3,16.7,29.79,WNW,300,31.0,37.0,79,0.00,,,0.00,meteohub,2013-02-01 05:43:00,
2013-02-01 00:49:00,22.3,17.6,29.78,WNW,296,23.0,37.0,82,0.00,,,0.00,meteohub,2013-02-01 05:49:00,
2013-02-01 00:54:00,21.7,17.1,29.79,WNW,288,32.0,36.0,82,0.00,,,0.00,meteohub,2013-02-01 05:54:00,
2013-02-01 00:59:00,21.7,16.5,29.78,WNW,282,27.0,36.0,80,0.00,,,0.00,meteohub,2013-02-01 05:59:00,
2013-02-01 01:04:00,22.1,17.8,29.79,WNW,294,29.0,33.0,83,0.00,,,0.00,meteohub,2013-02-01 06:04:00,
2013-02-01 01:09:00,22.1,16.3,29.78,West,281,23.0,33.0,78,0.00,,,0.00,meteohub,2013-02-01 06:09:00,
2013-02-01 01:14:00,22.5,16.0,29.78,WNW,285,23.0,33.0,76,0.00,,,0.00,meteohub,2013-02-01 06:14:00,
2013-02-01 01:19:00,22.5,15.4,29.78,WNW,288,31.0,33.0,74,0.00,,,0.00,meteohub,2013-02-01 06:19:00,
2013-02-01 01:24:00,22.3,16.2,29.78,WNW,294,33.0,33.0,77,0.00,,,0.00,meteohub,2013-02-01 06:24:00,
2013-02-01 01:29:00,22.3,17.4,29.78,WNW,301,24.0,33.0,81,0.00,,,0.00,meteohub,2013-02-01 06:29:00,
2013-02-01 01:34:00,21.9,16.7,29.79,WNW,303,27.0,33.0,80,0.00,,,0.00,meteohub,2013-02-01 06:34:00,
2013-02-01 01:39:00,21.9,16.2,29.78,WNW,292,20.0,33.0,78,0.00,,,0.00,meteohub,2013-02-01 06:39:00,
2013-02-01 01:44:00,22.3,17.1,29.79,NW,308,23.0,33.0,80,0.00,,,0.00,meteohub,2013-02-01 06:44:00,
2013-02-01 01:49:00,21.6,17.2,29.79,WNW,300,29.0,33.0,83,0.00,,,0.00,meteohub,2013-02-01 06:49:00,
2013-02-01 01:55:00,21.9,16.2,29.79,WNW,296,27.0,35.0,78,0.00,,,0.00,meteohub,2013-02-01 06:55:00,
2013-02-01 02:00:00,22.1,16.0,29.80,WNW,292,28.0,35.0,77,0.00,,,0.00,meteohub,2013-02-01 07:00:00,
2013-02-01 02:05:00,22.3,15.3,29.80,NW,309,26.0,35.0,74,0.00,,,0.00,meteohub,2013-02-01 07:05:00,
2013-02-01 02:10:00,22.3,15.6,29.80,WNW,299,28.0,33.0,75,0.00,,,0.00,meteohub,2013-02-01 07:10:00,
2013-02-01 02:15:00,22.1,14.5,29.80,WNW,300,30.0,33.0,72,0.00,,,0.00,meteohub,2013-02-01 07:15:00,
2013-02-01 02:20:00,21.9,14.0,29.80,WNW,302,27.0,34.0,71,0.00,,,0.00,meteohub,2013-02-01 07:20:00,
2013-02-01 02:25:00,22.3,14.9,29.80,WNW,301,25.0,34.0,73,0.00,,,0.00,meteohub,2013-02-01 07:25:00,
2013-02-01 02:30:00,22.1,15.1,29.81,NW,313,25.0,33.0,74,0.00,,,0.00,meteohub,2013-02-01 07:30:00,
2013-02-01 02:35:00,22.1,14.5,29.81,NW,312,27.0,34.0,72,0.00,,,0.00,meteohub,2013-02-01 07:35:00,
2013-02-01 02:40:00,22.1,15.4,29.81,WNW,300,22.0,34.0,75,0.00,,,0.00,meteohub,2013-02-01 07:40:00,
2013-02-01 02:45:00,21.7,13.1,29.81,WNW,300,26.0,35.0,69,0.00,,,0.00,meteohub,2013-02-01 07:45:00,
2013-02-01 02:50:00,21.9,14.0,29.81,WNW,290,27.0,35.0,71,0.00,,,0.00,meteohub,2013-02-01 07:50:00,
2013-02-01 02:55:00,21.9,13.6,29.81,WNW,293,33.0,35.0,70,0.00,,,0.00,meteohub,2013-02-01 07:55:00,
2013-02-01 03:00:00,21.9,14.0,29.81,WNW,296,25.0,35.0,71,0.00,,,0.00,meteohub,2013-02-01 08:00:00,
2013-02-01 03:05:00,21.9,14.5,29.82,WNW,289,27.0,35.0,73,0.00,,,0.00,meteohub,2013-02-01 08:05:00,
2013-02-01 03:10:00,21.7,13.5,29.82,NW,314,30.0,37.0,70,0.00,,,0.00,meteohub,2013-02-01 08:10:00,
2013-02-01 03:15:00,21.9,14.4,29.82,WNW,294,21.0,37.0,72,0.00,,,0.00,meteohub,2013-02-01 08:15:00,
2013-02-01 03:20:00,21.7,13.5,29.82,WNW,303,23.0,37.0,70,0.00,,,0.00,meteohub,2013-02-01 08:20:00,
2013-02-01 03:25:00,21.7,13.8,29.82,WNW,292,22.0,37.0,71,0.00,,,0.00,meteohub,2013-02-01 08:25:00,
2013-02-01 03:30:00,21.9,14.0,29.83,WNW,297,36.0,37.0,71,0.00,,,0.00,meteohub,2013-02-01 08:30:00,
2013-02-01 03:35:00,21.9,15.3,29.83,WNW,302,32.0,36.0,75,0.00,,,0.00,meteohub,2013-02-01 08:35:00,
2013-02-01 03:41:00,21.0,14.9,29.83,NW,307,20.0,36.0,77,0.00,,,0.00,meteohub,2013-02-01 08:41:00,
2013-02-01 03:46:00,21.4,14.7,29.83,WNW,300,22.0,36.0,75,0.00,,,0.00,meteohub,2013-02-01 08:46:00,
2013-02-01 03:51:00,21.4,15.8,29.83,NW,309,34.0,35.0,79,0.00,,,0.00,meteohub,2013-02-01 08:51:00,
2013-02-01 03:56:00,21.4,15.6,29.84,WNW,298,25.0,34.0,78,0.00,,,0.00,meteohub,2013-02-01 08:56:00,
2013-02-01 04:01:00,21.4,14.7,29.84,WNW,292,29.0,35.0,75,0.00,,,0.00,meteohub,2013-02-01 09:01:00,
2013-02-01 04:06:00,21.4,14.0,29.84,WNW,303,27.0,35.0,73,0.00,,,0.00,meteohub,2013-02-01 09:06:00,
2013-02-01 04:11:00,20.8,15.4,29.84,West,277,26.0,35.0,79,0.00,,,0.00,meteohub,2013-02-01 09:11:00,
2013-02-01 04:16:00,21.0,15.3,29.84,WNW,290,23.0,34.0,78,0.00,,,0.00,meteohub,2013-02-01 09:16:00,
2013-02-01 04:21:00,20.5,15.8,29.85,WNW,300,28.0,34.0,82,0.00,,,0.00,meteohub,2013-02-01 09:21:00,
2013-02-01 04:26:00,20.7,16.3,29.84,WNW,292,23.0,33.0,83,0.00,,,0.00,meteohub,2013-02-01 09:26:00,
2013-02-01 04:31:00,20.7,16.0,29.85,WNW,296,28.0,33.0,82,0.00,,,0.00,meteohub,2013-02-01 09:31:00,
2013-02-01 04:36:00,21.0,16.2,29.85,WNW,296,26.0,36.0,81,0.00,,,0.00,meteohub,2013-02-01 09:36:00,
2013-02-01 04:41:00,21.0,15.6,29.86,WNW,300,28.0,36.0,79,0.00,,,0.00,meteohub,2013-02-01 09:41:00,
2013-02-01 04:46:00,20.7,16.3,29.86,NW,310,22.0,36.0,83,0.00,,,0.00,meteohub,2013-02-01 09:46:00,
2013-02-01 04:51:00,20.8,16.0,29.86,WNW,294,28.0,35.0,81,0.00,,,0.00,meteohub,2013-02-01 09:51:00,
2013-02-01 04:56:00,21.4,15.6,29.86,WNW,299,31.0,35.0,78,0.00,,,0.00,meteohub,2013-02-01 09:56:00,
2013-02-01 05:01:00,20.7,14.9,29.86,WNW,297,27.0,35.0,78,0.00,,,0.00,meteohub,2013-02-01 10:01:00,
2013-02-01 05:06:00,21.4,15.8,29.87,NW,311,28.0,35.0,79,0.00,,,0.00,meteohub,2013-02-01 10:06:00,
2013-02-01 05:12:00,20.7,14.9,29.87,NW,306,21.0,36.0,78,0.00,,,0.00,meteohub,2013-02-01 10:12:00,
2013-02-01 05:17:00,20.8,16.0,29.87,WNW,293,27.0,36.0,81,0.00,,,0.00,meteohub,2013-02-01 10:17:00,
2013-02-01 05:22:00,21.0,14.0,29.87,WNW,291,27.0,35.0,74,0.00,,,0.00,meteohub,2013-02-01 10:22:00,
2013-02-01 05:27:00,21.4,15.6,29.88,WNW,296,25.0,34.0,78,0.00,,,0.00,meteohub,2013-02-01 10:27:00,
2013-02-01 05:32:00,21.2,15.1,29.88,WNW,292,29.0,34.0,77,0.00,,,0.00,meteohub,2013-02-01 10:32:00,
2013-02-01 05:37:00,21.4,14.0,29.88,WNW,287,27.0,34.0,73,0.00,,,0.00,meteohub,2013-02-01 10:37:00,
2013-02-01 05:42:00,21.4,14.0,29.88,WNW,287,28.0,34.0,73,0.00,,,0.00,meteohub,2013-02-01 10:42:00,
2013-02-01 05:47:00,21.6,14.5,29.89,WNW,290,28.0,34.0,74,0.00,,,0.00,meteohub,2013-02-01 10:47:00,
2013-02-01 05:52:00,21.4,14.0,29.89,WNW,282,27.0,34.0,73,0.00,,,0.00,meteohub,2013-02-01 10:52:00,
2013-02-01 05:57:00,21.6,14.9,29.89,West,281,33.0,36.0,75,0.00,,,0.00,meteohub,2013-02-01 10:57:00,
2013-02-01 06:02:00,21.6,15.8,29.90,WNW,292,30.0,37.0,78,0.00,,,0.00,meteohub,2013-02-01 11:02:00,
2013-02-01 06:07:00,21.4,15.1,29.90,WNW,293,28.0,37.0,76,0.00,,,0.00,meteohub,2013-02-01 11:07:00,
2013-02-01 06:12:00,21.4,16.2,29.90,WNW,292,33.0,36.0,80,0.00,,,0.00,meteohub,2013-02-01 11:12:00,
2013-02-01 06:17:00,20.8,15.4,29.91,West,281,25.0,36.0,79,0.00,,,0.00,meteohub,2013-02-01 11:17:00,
2013-02-01 06:22:00,21.4,16.2,29.91,WNW,282,25.0,36.0,80,0.00,,,0.00,meteohub,2013-02-01 11:22:00,
2013-02-01 06:27:00,21.2,15.4,29.91,West,274,28.0,36.0,78,0.00,,,0.00,meteohub,2013-02-01 11:27:00,
2013-02-01 06:32:00,21.2,15.4,29.91,WNW,299,32.0,34.0,78,0.00,,,0.00,meteohub,2013-02-01 11:32:00,
2013-02-01 06:37:00,21.0,15.6,29.92,West,279,25.0,35.0,79,0.00,,,0.00,meteohub,2013-02-01 11:37:00,
2013-02-01 06:42:00,21.4,15.6,29.92,WNW,290,33.0,35.0,78,0.00,,,0.00,meteohub,2013-02-01 11:42:00,
2013-02-01 06:47:00,21.0,16.3,29.93,West,281,26.0,36.0,82,0.00,,,0.00,meteohub,2013-02-01 11:47:00,
2013-02-01 06:52:00,20.7,16.3,29.93,NW,304,31.0,36.0,83,0.00,,,0.00,meteohub,2013-02-01 11:52:00,
2013-02-01 06:57:00,21.2,17.1,29.93,West,274,33.0,36.0,84,0.00,,,0.00,meteohub,2013-02-01 11:57:00,
2013-02-01 07:02:00,21.6,16.3,29.94,WNW,293,37.0,37.0,80,0.00,,,0.00,meteohub,2013-02-01 12:02:00,
2013-02-01 07:07:00,20.8,16.7,29.94,WNW,289,29.0,39.0,84,0.00,,,0.00,meteohub,2013-02-01 12:07:00,
2013-02-01 07:12:00,21.6,16.0,29.94,WNW,289,38.0,39.0,79,0.00,,,0.00,meteohub,2013-02-01 12:12:00,
2013-02-01 07:17:00,21.4,15.3,29.95,WNW,287,36.0,39.0,77,0.00,,,0.00,meteohub,2013-02-01 12:17:00,
2013-02-01 07:22:00,21.6,15.4,29.96,WNW,292,33.0,39.0,77,0.00,,,0.00,meteohub,2013-02-01 12:22:00,
2013-02-01 07:27:00,21.6,14.5,29.96,WNW,294,32.0,39.0,74,0.00,,,0.00,meteohub,2013-02-01 12:27:00,
2013-02-01 07:32:00,21.6,14.9,29.96,WNW,286,23.0,39.0,75,0.00,,,0.00,meteohub,2013-02-01 12:32:00,
2013-02-01 07:37:00,21.4,14.4,29.96,West,279,24.0,39.0,74,0.00,,,0.00,meteohub,2013-02-01 12:37:00,
2013-02-01 07:42:00,21.7,14.4,29.96,WNW,284,27.0,39.0,73,0.00,,,0.00,meteohub,2013-02-01 12:42:00,
2013-02-01 07:47:00,21.6,14.5,29.97,WNW,285,30.0,38.0,74,0.00,,,0.00,meteohub,2013-02-01 12:47:00,
2013-02-01 07:52:00,21.6,13.6,29.97,WNW,288,26.0,38.0,71,0.00,,,0.00,meteohub,2013-02-01 12:52:00,
2013-02-01 07:57:00,21.6,14.2,29.97,NW,308,24.0,38.0,73,0.00,,,0.00,meteohub,2013-02-01 12:57:00,
2013-02-01 08:02:00,21.7,14.4,29.98,WNW,287,29.0,35.0,73,0.00,,,0.00,meteohub,2013-02-01 13:02:00,
2013-02-01 08:07:00,21.6,14.2,29.98,WNW,294,26.0,35.0,73,0.00,,,0.00,meteohub,2013-02-01 13:07:00,
2013-02-01 08:12:00,21.6,14.5,29.98,West,281,35.0,35.0,74,0.00,,,0.00,meteohub,2013-02-01 13:12:00,
2013-02-01 08:17:00,21.2,13.3,29.98,WNW,298,32.0,36.0,71,0.00,,,0.00,meteohub,2013-02-01 13:17:00,
2013-02-01 08:22:00,21.4,13.8,29.99,WNW,289,20.0,36.0,72,0.00,,,0.00,meteohub,2013-02-01 13:22:00,
2013-02-01 08:27:00,21.4,13.5,29.99,WNW,296,23.0,36.0,71,0.00,,,0.00,meteohub,2013-02-01 13:27:00,
2013-02-01 08:32:00,21.4,12.4,29.99,WNW,302,28.0,36.0,68,0.00,,,0.00,meteohub,2013-02-01 13:32:00,
2013-02-01 08:37:00,21.2,13.6,30.00,WNW,290,27.0,35.0,72,0.00,,,0.00,meteohub,2013-02-01 13:37:00,
2013-02-01 08:42:00,21.4,14.4,30.00,WNW,298,27.0,36.0,74,0.00,,,0.00,meteohub,2013-02-01 13:42:00,
2013-02-01 08:47:00,21.4,13.8,30.00,WNW,303,33.0,36.0,72,0.00,,,0.00,meteohub,2013-02-01 13:47:00,
2013-02-01 08:52:00,21.4,13.1,30.01,WNW,295,31.0,36.0,70,0.00,,,0.00,meteohub,2013-02-01 13:52:00,
2013-02-01 08:57:00,21.4,14.0,30.01,WNW,291,30.0,36.0,73,0.00,,,0.00,meteohub,2013-02-01 13:57:00,
2013-02-01 09:02:00,21.2,14.2,30.01,WNW,288,36.0,38.0,74,0.00,,,0.00,meteohub,2013-02-01 14:02:00,
2013-02-01 09:07:00,21.6,15.4,30.02,WNW,290,24.0,38.0,77,0.00,,,0.00,meteohub,2013-02-01 14:07:00,
2013-02-01 09:12:00,21.4,12.2,30.02,NW,310,32.0,38.0,67,0.00,,,0.00,meteohub,2013-02-01 14:12:00,
2013-02-01 09:17:00,21.4,13.5,30.02,WNW,298,30.0,38.0,71,0.00,,,0.00,meteohub,2013-02-01 14:17:00,
2013-02-01 09:22:00,21.4,13.8,30.03,WNW,295,32.0,38.0,72,0.00,,,0.00,meteohub,2013-02-01 14:22:00,
2013-02-01 09:27:00,20.8,12.9,30.03,WNW,287,33.0,38.0,71,0.00,,,0.00,meteohub,2013-02-01 14:27:00,
2013-02-01 09:32:00,21.0,14.0,30.03,WNW,302,30.0,38.0,74,0.00,,,0.00,meteohub,2013-02-01 14:32:00,
2013-02-01 09:37:00,20.5,15.3,30.04,NW,304,33.0,39.0,80,0.00,,,0.00,meteohub,2013-02-01 14:37:00,
2013-02-01 09:42:00,20.7,15.8,30.04,West,279,34.0,39.0,81,0.00,,,0.00,meteohub,2013-02-01 14:42:00,
2013-02-01 09:47:00,20.5,15.3,30.05,West,275,29.0,39.0,80,0.00,,,0.00,meteohub,2013-02-01 14:47:00,
2013-02-01 09:53:00,20.7,16.0,30.05,WNW,294,25.0,44.0,82,0.00,,,0.00,meteohub,2013-02-01 14:53:00,
2013-02-01 09:58:00,20.7,15.3,30.04,WNW,294,31.0,44.0,79,0.00,,,0.00,meteohub,2013-02-01 14:58:00,
2013-02-01 10:03:00,20.8,15.1,30.05,WNW,301,37.0,44.0,78,0.00,,,0.00,meteohub,2013-02-01 15:03:00,
2013-02-01 10:08:00,20.5,14.4,30.05,West,276,31.0,37.0,77,0.00,,,0.00,meteohub,2013-02-01 15:08:00,
2013-02-01 10:13:00,20.8,15.4,30.05,WNW,293,25.0,38.0,79,0.00,,,0.00,meteohub,2013-02-01 15:13:00,
2013-02-01 10:18:00,20.7,14.9,30.05,WNW,291,33.0,38.0,78,0.00,,,0.00,meteohub,2013-02-01 15:18:00,
2013-02-01 10:23:00,20.7,14.4,30.06,WNW,295,27.0,38.0,76,0.00,,,0.00,meteohub,2013-02-01 15:23:00,
2013-02-01 10:28:00,21.0,15.3,30.06,West,281,29.0,39.0,78,0.00,,,0.00,meteohub,2013-02-01 15:28:00,
2013-02-01 10:33:00,21.0,15.3,30.06,West,278,28.0,39.0,78,0.00,,,0.00,meteohub,2013-02-01 15:33:00,
2013-02-01 10:38:00,20.7,15.3,30.07,WNW,294,33.0,40.0,79,0.00,,,0.00,meteohub,2013-02-01 15:38:00,
2013-02-01 10:43:00,20.1,15.8,30.07,WNW,295,30.0,40.0,83,0.00,,,0.00,meteohub,2013-02-01 15:43:00,
2013-02-01 10:48:00,20.3,16.2,30.07,WNW,290,35.0,40.0,84,0.00,,,0.00,meteohub,2013-02-01 15:48:00,
2013-02-01 10:54:00,20.3,15.1,30.07,WNW,286,25.0,37.0,80,0.00,,,0.00,meteohub,2013-02-01 15:54:00,
2013-02-01 10:59:00,20.7,14.5,30.08,WNW,295,29.0,37.0,77,0.00,,,0.00,meteohub,2013-02-01 15:59:00,
2013-02-01 11:04:00,20.8,14.5,30.08,WNW,286,30.0,39.0,76,0.00,,,0.00,meteohub,2013-02-01 16:04:00,
2013-02-01 11:09:00,20.8,13.6,30.09,WNW,290,31.0,39.0,73,0.00,,,0.00,meteohub,2013-02-01 16:09:00,
2013-02-01 11:14:00,20.7,14.0,30.09,West,274,29.0,39.0,75,0.00,,,0.00,meteohub,2013-02-01 16:14:00,
2013-02-01 11:19:00,21.6,15.8,30.08,WNW,289,33.0,38.0,78,0.00,,,0.00,meteohub,2013-02-01 16:19:00,
2013-02-01 11:24:00,21.0,14.0,30.08,WNW,288,29.0,38.0,74,0.00,,,0.00,meteohub,2013-02-01 16:24:00,
2013-02-01 11:29:00,21.0,13.8,30.09,West,281,33.0,39.0,73,0.00,,,0.00,meteohub,2013-02-01 16:29:00,
2013-02-01 11:34:00,21.2,13.8,30.09,WNW,289,40.0,40.0,73,0.00,,,0.00,meteohub,2013-02-01 16:34:00,
2013-02-01 11:39:00,21.2,13.6,30.09,WNW,298,28.0,39.0,72,0.00,,,0.00,meteohub,2013-02-01 16:39:00,
2013-02-01 11:44:00,21.2,14.2,30.10,NW,304,33.0,40.0,74,0.00,,,0.00,meteohub,2013-02-01 16:44:00,
2013-02-01 11:49:00,21.0,14.4,30.09,West,271,36.0,40.0,75,0.00,,,0.00,meteohub,2013-02-01 16:49:00,
2013-02-01 11:54:00,21.2,14.2,30.09,WNW,282,29.0,37.0,74,0.00,,,0.00,meteohub,2013-02-01 16:54:00,
2013-02-01 11:59:00,21.2,13.6,30.09,West,278,29.0,40.0,72,0.00,,,0.00,meteohub,2013-02-01 16:59:00,
2013-02-01 12:04:00,21.6,14.9,30.09,West,262,26.0,40.0,75,0.00,,,0.00,meteohub,2013-02-01 17:04:00,
2013-02-01 12:09:00,21.4,14.0,30.10,WNW,285,24.0,38.0,73,0.00,,,0.00,meteohub,2013-02-01 17:09:00,
2013-02-01 12:15:00,21.4,14.0,30.09,WNW,289,27.0,38.0,73,0.00,,,0.00,meteohub,2013-02-01 17:15:00,
2013-02-01 12:20:00,21.4,14.4,30.09,WNW,288,31.0,37.0,74,0.00,,,0.00,meteohub,2013-02-01 17:20:00,
2013-02-01 12:25:00,21.4,13.5,30.09,NW,305,33.0,37.0,71,0.00,,,0.00,meteohub,2013-02-01 17:25:00,
2013-02-01 12:30:00,21.4,14.4,30.09,WNW,284,26.0,37.0,74,0.00,,,0.00,meteohub,2013-02-01 17:30:00,
2013-02-01 12:35:00,21.4,13.8,30.10,WNW,284,31.0,37.0,72,0.00,,,0.00,meteohub,2013-02-01 17:35:00,
2013-02-01 12:40:00,21.6,14.2,30.10,WNW,282,28.0,37.0,73,0.00,,,0.00,meteohub,2013-02-01 17:40:00,
2013-02-01 12:45:00,21.4,14.7,30.10,WNW,289,34.0,37.0,75,0.00,,,0.00,meteohub,2013-02-01 17:45:00,
2013-02-01 12:50:00,21.4,13.5,30.10,WNW,284,31.0,39.0,71,0.00,,,0.00,meteohub,2013-02-01 17:50:00,
2013-02-01 12:55:00,21.2,14.2,30.10,West,280,29.0,39.0,74,0.00,,,0.00,meteohub,2013-02-01 17:55:00,
2013-02-01 13:00:00,21.4,15.6,30.10,West,273,26.0,40.0,78,0.00,,,0.00,meteohub,2013-02-01 18:00:00,
2013-02-01 13:05:00,20.8,16.0,30.10,WNW,284,36.0,40.0,81,0.00,,,0.00,meteohub,2013-02-01 18:05:00,
2013-02-01 13:10:00,20.7,15.8,30.10,West,279,33.0,40.0,81,0.00,,,0.00,meteohub,2013-02-01 18:10:00,
2013-02-01 13:16:00,20.7,14.9,30.11,West,275,33.0,40.0,78,0.00,,,0.00,meteohub,2013-02-01 18:16:00,
2013-02-01 13:21:00,20.7,15.4,30.11,West,277,30.0,40.0,80,0.00,,,0.00,meteohub,2013-02-01 18:21:00,
2013-02-01 13:26:00,20.1,15.8,30.11,WNW,286,33.0,36.0,83,0.00,,,0.00,meteohub,2013-02-01 18:26:00,
2013-02-01 13:31:00,21.0,14.4,30.10,WNW,284,30.0,36.0,75,0.00,,,0.00,meteohub,2013-02-01 18:31:00,
2013-02-01 13:36:00,21.2,14.5,30.11,WNW,289,31.0,37.0,75,0.00,,,0.00,meteohub,2013-02-01 18:36:00,
2013-02-01 13:41:00,19.9,14.5,30.11,WNW,283,31.0,39.0,79,0.00,,,0.00,meteohub,2013-02-01 18:41:00,
2013-02-01 13:46:00,20.7,14.0,30.11,WNW,287,29.0,39.0,75,0.00,,,0.00,meteohub,2013-02-01 18:46:00,
2013-02-01 13:51:00,20.8,12.6,30.11,WNW,291,33.0,39.0,70,0.00,,,0.00,meteohub,2013-02-01 18:51:00,
2013-02-01 13:57:00,21.0,12.7,30.11,West,277,35.0,35.0,70,0.00,,,0.00,meteohub,2013-02-01 18:57:00,
2013-02-01 14:02:00,21.4,15.1,30.11,West,275,29.0,35.0,76,0.00,,,0.00,meteohub,2013-02-01 19:02:00,
2013-02-01 14:07:00,21.4,14.0,30.12,West,270,26.0,37.0,73,0.00,,,0.00,meteohub,2013-02-01 19:07:00,
2013-02-01 14:12:00,21.2,14.9,30.12,West,281,25.0,37.0,76,0.00,,,0.00,meteohub,2013-02-01 19:12:00,
2013-02-01 14:17:00,21.0,14.9,30.12,West,274,33.0,37.0,77,0.00,,,0.00,meteohub,2013-02-01 19:17:00,
2013-02-01 14:22:00,21.2,14.5,30.12,West,280,33.0,37.0,75,0.00,,,0.00,meteohub,2013-02-01 19:22:00,
2013-02-01 14:27:00,21.4,14.7,30.12,West,267,33.0,37.0,75,0.00,,,0.00,meteohub,2013-02-01 19:27:00,
2013-02-01 14:32:00,21.6,15.3,30.12,West,279,26.0,38.0,76,0.00,,,0.00,meteohub,2013-02-01 19:32:00,
2013-02-01 14:37:00,21.4,14.4,30.12,West,270,33.0,39.0,74,0.00,,,0.00,meteohub,2013-02-01 19:37:00,
2013-02-01 14:42:00,21.4,14.0,30.13,WNW,285,24.0,39.0,73,0.00,,,0.00,meteohub,2013-02-01 19:42:00,
2013-02-01 14:47:00,21.4,14.4,30.13,West,273,24.0,39.0,74,0.00,,,0.00,meteohub,2013-02-01 19:47:00,
2013-02-01 14:52:00,21.6,14.2,30.13,West,276,30.0,37.0,73,0.00,,,0.00,meteohub,2013-02-01 19:52:00,
2013-02-01 14:57:00,21.7,13.8,30.13,WNW,286,28.0,36.0,71,0.00,,,0.00,meteohub,2013-02-01 19:57:00,
2013-02-01 15:02:00,21.6,14.0,30.13,West,281,33.0,35.0,72,0.00,,,0.00,meteohub,2013-02-01 20:02:00,
2013-02-01 15:07:00,21.7,14.2,30.14,West,271,27.0,39.0,72,0.00,,,0.00,meteohub,2013-02-01 20:07:00,
2013-02-01 15:12:00,21.4,13.5,30.14,West,279,25.0,39.0,71,0.00,,,0.00,meteohub,2013-02-01 20:12:00,
2013-02-01 15:17:00,21.2,14.5,30.14,West,274,27.0,39.0,75,0.00,,,0.00,meteohub,2013-02-01 20:17:00,
2013-02-01 15:22:00,21.4,14.7,30.14,West,274,27.0,36.0,75,0.00,,,0.00,meteohub,2013-02-01 20:22:00,
2013-02-01 15:27:00,21.4,14.4,30.14,West,280,26.0,36.0,74,0.00,,,0.00,meteohub,2013-02-01 20:27:00,
2013-02-01 15:32:00,21.4,15.1,30.14,West,271,31.0,37.0,76,0.00,,,0.00,meteohub,2013-02-01 20:32:00,
2013-02-01 15:37:00,21.4,14.4,30.14,West,271,32.0,43.0,74,0.00,,,0.00,meteohub,2013-02-01 20:37:00,
2013-02-01 15:42:00,21.6,13.3,30.15,WNW,286,23.0,43.0,70,0.00,,,0.00,meteohub,2013-02-01 20:42:00,
2013-02-01 15:47:00,21.7,14.4,30.15,West,273,33.0,39.0,73,0.00,,,0.00,meteohub,2013-02-01 20:47:00,
2013-02-01 15:52:00,20.8,15.4,30.16,WNW,282,29.0,40.0,79,0.00,,,0.00,meteohub,2013-02-01 20:52:00,
2013-02-01 15:57:00,21.0,14.7,30.15,WNW,288,38.0,40.0,76,0.00,,,0.00,meteohub,2013-02-01 20:57:00,
2013-02-01 16:02:00,21.4,14.7,30.15,West,270,33.0,38.0,75,0.00,,,0.00,meteohub,2013-02-01 21:02:00,
2013-02-01 16:07:00,21.6,14.9,30.16,West,277,36.0,38.0,75,0.00,,,0.00,meteohub,2013-02-01 21:07:00,
2013-02-01 16:12:00,20.8,14.5,30.16,WNW,283,28.0,38.0,76,0.00,,,0.00,meteohub,2013-02-01 21:12:00,
2013-02-01 16:17:00,21.0,14.4,30.16,West,272,32.0,39.0,75,0.00,,,0.00,meteohub,2013-02-01 21:17:00,
2013-02-01 16:22:00,21.0,16.3,30.16,WNW,294,28.0,39.0,82,0.00,,,0.00,meteohub,2013-02-01 21:22:00,
2013-02-01 16:27:00,20.8,15.6,30.16,West,279,28.0,37.0,80,0.00,,,0.00,meteohub,2013-02-01 21:27:00,
2013-02-01 16:32:00,20.7,16.5,30.16,West,281,26.0,38.0,84,0.00,,,0.00,meteohub,2013-02-01 21:32:00,
2013-02-01 16:37:00,21.2,14.9,30.16,West,276,23.0,38.0,76,0.00,,,0.00,meteohub,2013-02-01 21:37:00,
2013-02-01 16:42:00,21.4,17.2,30.16,WNW,285,25.0,38.0,84,0.00,,,0.00,meteohub,2013-02-01 21:42:00,
2013-02-01 16:47:00,20.8,16.7,30.17,WNW,286,35.0,38.0,84,0.00,,,0.00,meteohub,2013-02-01 21:47:00,
2013-02-01 16:52:00,20.1,16.7,30.17,WNW,282,31.0,37.0,86,0.00,,,0.00,meteohub,2013-02-01 21:52:00,
2013-02-01 16:57:00,20.3,16.7,30.17,West,259,14.0,36.0,86,0.00,,,0.00,meteohub,2013-02-01 21:57:00,
2013-02-01 17:02:00,18.3,15.6,30.17,WSW,244,14.0,36.0,89,0.00,,,0.00,meteohub,2013-02-01 22:02:00,
2013-02-01 17:07:00,18.1,16.0,30.17,WSW,237,21.0,36.0,91,0.00,,,0.00,meteohub,2013-02-01 22:07:00,
2013-02-01 17:12:00,18.0,16.0,30.17,SW,236,11.0,25.0,92,0.00,,,0.00,meteohub,2013-02-01 22:12:00,
2013-02-01 17:17:00,17.4,15.4,30.18,SW,234,19.0,25.0,92,0.00,,,0.00,meteohub,2013-02-01 22:17:00,
2013-02-01 17:22:00,16.9,15.3,30.18,SW,230,15.0,25.0,93,0.00,,,0.00,meteohub,2013-02-01 22:22:00,
2013-02-01 17:27:00,17.1,15.4,30.18,SW,236,12.0,23.0,93,0.00,,,0.00,meteohub,2013-02-01 22:27:00,
2013-02-01 17:32:00,16.9,15.3,30.18,WSW,248,21.0,32.0,93,0.00,,,0.00,meteohub,2013-02-01 22:32:00,
2013-02-01 17:38:00,16.7,15.3,30.19,WSW,243,18.0,32.0,94,0.00,,,0.00,meteohub,2013-02-01 22:38:00,
2013-02-01 17:43:00,16.5,15.1,30.19,SW,236,18.0,26.0,94,0.00,,,0.00,meteohub,2013-02-01 22:43:00,
2013-02-01 17:48:00,16.3,14.9,30.19,WSW,248,16.0,26.0,94,0.00,,,0.00,meteohub,2013-02-01 22:48:00,
2013-02-01 17:53:00,16.3,14.9,30.19,SW,234,25.0,25.0,94,0.00,,,0.00,meteohub,2013-02-01 22:53:00,
2013-02-01 17:58:00,16.2,14.7,30.19,SW,228,20.0,25.0,94,0.00,,,0.00,meteohub,2013-02-01 22:58:00,
2013-02-01 18:03:00,16.2,14.7,30.19,SW,225,18.0,29.0,94,0.00,,,0.00,meteohub,2013-02-01 23:03:00,
2013-02-01 18:08:00,16.0,14.5,30.20,SSW,211,17.0,29.0,94,0.00,,,0.00,meteohub,2013-02-01 23:08:00,
2013-02-01 18:13:00,16.0,14.5,30.20,SW,227,19.0,29.0,94,0.00,,,0.00,meteohub,2013-02-01 23:13:00,
2013-02-01 18:18:00,16.0,14.5,30.20,WSW,237,23.0,26.0,94,0.00,,,0.00,meteohub,2013-02-01 23:18:00,
2013-02-01 18:23:00,16.0,14.5,30.20,SW,227,18.0,26.0,94,0.00,,,0.00,meteohub,2013-02-01 23:23:00,
2013-02-01 18:28:00,16.0,14.5,30.20,SW,226,16.0,25.0,94,0.00,,,0.00,meteohub,2013-02-01 23:28:00,
2013-02-01 18:34:00,16.0,14.5,30.20,SW,235,14.0,27.0,94,0.00,,,0.00,meteohub,2013-02-01 23:34:00,
2013-02-01 18:39:00,16.0,14.5,30.20,SW,224,16.0,27.0,94,0.00,,,0.00,meteohub,2013-02-01 23:39:00,
2013-02-01 18:44:00,16.0,14.5,30.20,SSW,211,19.0,26.0,94,0.00,,,0.00,meteohub,2013-02-01 23:44:00,
2013-02-01 18:49:00,16.0,14.5,30.20,SSW,204,14.0,23.0,94,0.00,,,0.00,meteohub,2013-02-01 23:49:00,
2013-02-01 18:54:00,16.0,14.5,30.20,WSW,241,22.0,23.0,94,0.00,,,0.00,meteohub,2013-02-01 23:54:00,
2013-02-01 18:59:00,16.0,14.5,30.21,SW,233,18.0,23.0,94,0.00,,,0.00,meteohub,2013-02-01 23:59:00,
2013-02-01 19:04:00,16.0,14.4,30.20,SW,231,21.0,27.0,93,0.00,,,0.00,meteohub,2013-02-02 00:04:00,
2013-02-01 19:09:00,16.0,14.4,30.21,SW,229,17.0,27.0,93,0.00,,,0.00,meteohub,2013-02-02 00:09:00,
2013-02-01 19:14:00,16.0,14.0,30.21,SW,223,23.0,27.0,92,0.00,,,0.00,meteohub,2013-02-02 00:14:00,
2013-02-01 19:19:00,16.0,14.0,30.22,SW,229,21.0,30.0,92,0.00,,,0.00,meteohub,2013-02-02 00:19:00,
2013-02-01 19:24:00,16.0,13.8,30.22,WSW,242,21.0,30.0,91,0.00,,,0.00,meteohub,2013-02-02 00:24:00,
2013-02-01 19:29:00,16.0,13.8,30.21,SW,233,21.0,30.0,91,0.00,,,0.00,meteohub,2013-02-02 00:29:00,
2013-02-01 19:35:00,15.8,13.6,30.21,SW,229,27.0,28.0,91,0.00,,,0.00,meteohub,2013-02-02 00:35:00,
2013-02-01 19:40:00,15.6,13.3,30.22,SW,236,17.0,32.0,90,0.00,,,0.00,meteohub,2013-02-02 00:40:00,
2013-02-01 19:45:00,15.6,13.3,30.22,SW,232,20.0,32.0,90,0.00,,,0.00,meteohub,2013-02-02 00:45:00,
2013-02-01 19:50:00,15.4,13.1,30.22,SW,236,21.0,30.0,90,0.00,,,0.00,meteohub,2013-02-02 00:50:00,
2013-02-01 19:55:00,15.3,13.1,30.22,WSW,241,19.0,31.0,91,0.00,,,0.00,meteohub,2013-02-02 00:55:00,
2013-02-01 20:00:00,15.1,13.1,30.22,SW,234,10.0,31.0,92,0.00,,,0.00,meteohub,2013-02-02 01:00:00,
2013-02-01 20:05:00,15.1,13.5,30.22,SW,233,14.0,27.0,93,0.00,,,0.00,meteohub,2013-02-02 01:05:00,
2013-02-01 20:10:00,15.3,13.3,30.23,SW,235,18.0,27.0,92,0.00,,,0.00,meteohub,2013-02-02 01:10:00,
2013-02-01 20:15:00,15.3,13.3,30.23,SSW,213,13.0,25.0,92,0.00,,,0.00,meteohub,2013-02-02 01:15:00,
2013-02-01 20:20:00,15.1,13.1,30.23,SW,221,13.0,25.0,92,0.00,,,0.00,meteohub,2013-02-02 01:20:00,
2013-02-01 20:25:00,15.1,13.1,30.23,SW,229,11.0,23.0,92,0.00,,,0.00,meteohub,2013-02-02 01:25:00,
2013-02-01 20:30:00,14.9,12.9,30.23,WSW,241,19.0,23.0,92,0.00,,,0.00,meteohub,2013-02-02 01:30:00,
2013-02-01 20:35:00,15.1,13.1,30.23,SW,226,14.0,24.0,92,0.00,,,0.00,meteohub,2013-02-02 01:35:00,
2013-02-01 20:40:00,15.1,12.9,30.23,WSW,242,15.0,24.0,91,0.00,,,0.00,meteohub,2013-02-02 01:40:00,
2013-02-01 20:45:00,15.1,12.9,30.23,SW,234,15.0,24.0,91,0.00,,,0.00,meteohub,2013-02-02 01:45:00,
2013-02-01 20:50:00,15.1,12.9,30.23,SW,227,14.0,23.0,91,0.00,,,0.00,meteohub,2013-02-02 01:50:00,
2013-02-01 20:56:00,15.3,12.6,30.22,WSW,239,16.0,24.0,89,0.00,,,0.00,meteohub,2013-02-02 01:56:00,
2013-02-01 21:01:00,15.3,12.4,30.22,SW,236,18.0,24.0,88,0.00,,,0.00,meteohub,2013-02-02 02:01:00,
2013-02-01 21:06:00,15.4,11.7,30.23,WSW,238,23.0,25.0,85,0.00,,,0.00,meteohub,2013-02-02 02:06:00,
2013-02-01 21:11:00,15.6,11.3,30.23,SW,223,16.0,27.0,83,0.00,,,0.00,meteohub,2013-02-02 02:11:00,
2013-02-01 21:16:00,15.6,11.1,30.23,SW,227,17.0,27.0,82,0.00,,,0.00,meteohub,2013-02-02 02:16:00,
2013-02-01 21:21:00,15.6,10.8,30.23,WSW,241,17.0,28.0,81,0.00,,,0.00,meteohub,2013-02-02 02:21:00,
2013-02-01 21:26:00,15.6,11.1,30.24,WSW,244,22.0,28.0,82,0.00,,,0.00,meteohub,2013-02-02 02:26:00,
2013-02-01 21:31:00,15.4,10.9,30.24,SSW,211,18.0,28.0,82,0.00,,,0.00,meteohub,2013-02-02 02:31:00,
2013-02-01 21:36:00,15.4,10.6,30.24,SW,230,24.0,26.0,81,0.00,,,0.00,meteohub,2013-02-02 02:36:00,
2013-02-01 21:41:00,15.6,10.8,30.24,SW,220,19.0,29.0,81,0.00,,,0.00,meteohub,2013-02-02 02:41:00,
2013-02-01 21:46:00,15.6,10.6,30.24,SW,228,18.0,29.0,80,0.00,,,0.00,meteohub,2013-02-02 02:46:00,
2013-02-01 21:51:00,15.6,10.6,30.24,SSW,208,24.0,25.0,80,0.00,,,0.00,meteohub,2013-02-02 02:51:00,
2013-02-01 21:56:00,15.6,10.6,30.24,SW,227,22.0,26.0,80,0.00,,,0.00,meteohub,2013-02-02 02:56:00,
2013-02-01 22:02:00,15.6,10.2,30.24,SW,218,19.0,26.0,79,0.00,,,0.00,meteohub,2013-02-02 03:02:00,
2013-02-01 22:07:00,15.8,10.4,30.24,WSW,242,18.0,26.0,79,0.00,,,0.00,meteohub,2013-02-02 03:07:00,
2013-02-01 22:12:00,16.0,10.4,30.25,SW,235,15.0,27.0,78,0.00,,,0.00,meteohub,2013-02-02 03:12:00,
2013-02-01 22:17:00,16.0,10.0,30.25,SW,221,14.0,27.0,77,0.00,,,0.00,meteohub,2013-02-02 03:17:00,
2013-02-01 22:22:00,16.0,10.0,30.24,WSW,239,19.0,27.0,77,0.00,,,0.00,meteohub,2013-02-02 03:22:00,
2013-02-01 22:27:00,16.0,10.0,30.24,SW,230,14.0,27.0,77,0.00,,,0.00,meteohub,2013-02-02 03:27:00,
2013-02-01 22:32:00,16.0,9.7,30.24,WSW,241,17.0,27.0,76,0.00,,,0.00,meteohub,2013-02-02 03:32:00,
2013-02-01 22:37:00,16.0,10.0,30.24,SW,235,16.0,22.0,77,0.00,,,0.00,meteohub,2013-02-02 03:37:00,
2013-02-01 22:42:00,16.0,9.7,30.24,SSW,213,20.0,25.0,76,0.00,,,0.00,meteohub,2013-02-02 03:42:00,
2013-02-01 22:47:00,16.0,10.0,30.24,WSW,241,16.0,27.0,77,0.00,,,0.00,meteohub,2013-02-02 03:47:00,
2013-02-01 22:52:00,16.0,9.7,30.24,SW,230,18.0,27.0,76,0.00,,,0.00,meteohub,2013-02-02 03:52:00,
2013-02-01 22:57:00,16.0,9.5,30.24,SW,228,15.0,27.0,75,0.00,,,0.00,meteohub,2013-02-02 03:57:00,
2013-02-01 23:02:00,16.0,9.5,30.24,SW,225,17.0,25.0,75,0.00,,,0.00,meteohub,2013-02-02 04:02:00,
2013-02-01 23:07:00,16.2,9.3,30.24,SW,223,15.0,25.0,74,0.00,,,0.00,meteohub,2013-02-02 04:07:00,
2013-02-01 23:12:00,16.0,9.5,30.24,SW,225,23.0,28.0,75,0.00,,,0.00,meteohub,2013-02-02 04:12:00,
2013-02-01 23:17:00,16.0,9.5,30.24,WSW,240,19.0,28.0,75,0.00,,,0.00,meteohub,2013-02-02 04:17:00,
2013-02-01 23:22:00,16.2,9.7,30.24,SW,221,15.0,26.0,75,0.00,,,0.00,meteohub,2013-02-02 04:22:00,
2013-02-01 23:28:00,16.0,9.5,30.24,SW,217,19.0,27.0,75,0.00,,,0.00,meteohub,2013-02-02 04:28:00,
2013-02-01 23:33:00,16.0,9.7,30.23,SSW,208,14.0,31.0,76,0.00,,,0.00,meteohub,2013-02-02 04:33:00,
2013-02-01 23:38:00,16.0,9.7,30.24,SSW,213,17.0,31.0,76,0.00,,,0.00,meteohub,2013-02-02 04:38:00,
2013-02-01 23:43:00,15.6,9.7,30.24,SW,217,20.0,31.0,77,0.00,,,0.00,meteohub,2013-02-02 04:43:00,
2013-02-01 23:48:00,15.6,10.0,30.24,SW,233,18.0,29.0,78,0.00,,,0.00,meteohub,2013-02-02 04:48:00,
2013-02-01 23:53:00,15.4,9.9,30.24,SW,223,19.0,29.0,78,0.00,,,0.00,meteohub,2013-02-02 04:53:00,
2013-02-01 23:58:00,15.4,9.5,30.24,SW,221,17.0,29.0,77,0.00,,,0.00,meteohub,2013-02-02 04:58:00,